Flag for Austria Weather past 2 weeks in Judenburg, Styria, Austria

Now
79 °F

Passing clouds.


Feels Like: 80 °F
Forecast: 54 / 86 °F
Wind: 1 mph from North

Location: Zeltweg

Current Time: Aug 5, 2015 at 12:37:00 PM

Latest Report: Aug 5, 2015 at 11:50 AM


Visibility: 19 mi

Pressure: 30.15 "Hg (27.71 "Hg at 739m altitude)

Humidity: 51%

Dew point: 59 °F

Location of JudenburgLocation

Historic Weather in Judenburg — Graph

°F

Judenburg temperature yesterday

Maximum temperature yesterday: 84 °F (at 4:50 PM)
Minimum temperature yesterday: 54 °F (at 5:50 AM)
Average temperature yesterday: 73 °F

Past Weeks' High & Low Weather Summary

 TemperatureHumidityPressure
High88 °F (Jul 22, 2:20 PM)100% (Jul 22, 5:50 AM)30.18 "Hg (Jul 22, 5:50 AM)
Low48 °F (Aug 1, 5:50 AM)37% (Jul 23, 12:50 PM)29.80 "Hg (Jul 27, 5:50 AM)
Average66 °F76%29.99 "Hg
* Reported Jul 21 10:20 AM — Aug 5 10:50 AM, Judenburg, Weather by CustomWeather, © 2015

Note: Actual official high and low records may vary slightly from our data, if they occured in-between our weather recording intervals... More about our weather records

Advertising

Judenburg weather history for previous 24 hours

 ConditionsComfort  
Time TempWeatherWind HumidityBarometerVisibility
10:50 AM
Wed, Aug 5
75 °FPassing clouds.2 mph54%30.15 "Hg19 mi
9:50 AM73 °FPassing clouds.1 mph65%30.15 "Hg12 mi
8:50 AM68 °FPassing clouds.1 mph78%30.15 "Hg11 mi
7:50 AM64 °FPassing clouds.1 mph83%30.15 "Hg9 mi
6:50 AM61 °FPassing clouds.1 mph94%30.15 "Hg7 mi
5:50 AM59 °FPassing clouds.2 mph94%30.15 "Hg7 mi
10:50 PM
Tue, Aug 4
70 °FPassing clouds.3 mph78%30.07 "Hg12 mi
9:50 PM72 °FPassing clouds.1 mph73%30.04 "Hg19 mi
8:50 PM75 °FScattered clouds.7 mph65%30.04 "Hg19 mi
7:50 PM79 °FPassing clouds.7 mph58%30.01 "Hg19 mi
6:50 PM81 °FPassing clouds.6 mph54%29.98 "Hg19 mi
5:50 PM82 °FPassing clouds.6 mph45%29.98 "Hg19 mi
4:50 PM84 °FPassing clouds.5 mph45%30.01 "Hg19 mi
3:50 PM82 °FPassing clouds.3 mph48%30.01 "Hg19 mi
2:50 PM82 °FPassing clouds.3 mph45%30.01 "Hg19 mi
1:50 PM81 °FPassing clouds.2 mph51%30.04 "Hg19 mi
12:50 PM79 °FPassing clouds.2 mph58%30.07 "Hg19 mi
Weather by CustomWeather, © 2015

See weather overviewHow to use our weather pages